• In Portugal
  • List of Countries
  • For 7 days
  • Water Temperature
  • Satellite Maps
  • Weather Map
  • Weather Widgets
  • user-avatar
    Login

    Hourly Weather Brasília

    Today, 17 July, Tuesday

    Time Temperature Precipitation Wind Pressure Humidity
    00:00 +18°C° 0 mm 2 mps 669 mmHg 62%
    01:00 +18°C° 0 mm 2 mps 669 mmHg 63%
    02:00 +17°C° 0 mm 2 mps 669 mmHg 63%
    03:00 +17°C° 0 mm 2 mps 668 mmHg 64%
    04:00 +17°C° 0 mm 2 mps 668 mmHg 66%
    05:00 +16°C° 0 mm 2 mps 668 mmHg 67%
    06:00 +16°C° 0 mm 3 mps 668 mmHg 69%
    07:00 +17°C° 0 mm 3 mps 669 mmHg 65%
    08:00 +19°C° 0 mm 4 mps 670 mmHg 60%
    09:00 +20°C° 0 mm 5 mps 670 mmHg 56%
    10:00 +22°C° 0 mm 5 mps 671 mmHg 51%
    11:00 +25°C° 0 mm 5 mps 671 mmHg 46%
    12:00 +26°C° 0 mm 4 mps 671 mmHg 41%
    13:00 +27°C° 0 mm 4 mps 671 mmHg 39%
    14:00 +27°C° 0 mm 4 mps 670 mmHg 38%
    15:00 +28°C° 0 mm 4 mps 670 mmHg 36%
    16:00 +26°C° 0 mm 3 mps 669 mmHg 40%
    17:00 +25°C° 0 mm 3 mps 669 mmHg 44%
    18:00 +23°C° 0 mm 2 mps 668 mmHg 48%
    19:00 +21°C° 0 mm 2 mps 668 mmHg 51%
    20:00 +20°C° 0 mm 2 mps 668 mmHg 55%
    21:00 +19°C° 0 mm 2 mps 669 mmHg 58%
    22:00 +19°C° 0 mm 2 mps 669 mmHg 59%
    23:00 +18°C° 0 mm 2 mps 669 mmHg 61%

    Tomorrow, 18 July, Wednesday

    Time Temperature Precipitation Wind Pressure Humidity
    00:00 +18°C° 0 mm 2 mps 669 mmHg 63%
    01:00 +17°C° 0 mm 2 mps 668 mmHg 66%
    02:00 +17°C° 0 mm 2 mps 668 mmHg 68%
    03:00 +16°C° 0 mm 2 mps 668 mmHg 71%
    04:00 +16°C° 0 mm 3 mps 668 mmHg 73%
    05:00 +16°C° 0 mm 3 mps 668 mmHg 75%
    06:00 +16°C° 0 mm 3 mps 668 mmHg 77%
    07:00 +17°C° 0 mm 4 mps 669 mmHg 74%
    08:00 +19°C° 0 mm 4 mps 670 mmHg 70%
    09:00 +20°C° 0 mm 5 mps 670 mmHg 66%
    10:00 +22°C° 0 mm 5 mps 670 mmHg 59%
    11:00 +23°C° 0 mm 5 mps 671 mmHg 52%
    12:00 +26°C° 0 mm 5 mps 671 mmHg 45%
    13:00 +27°C° 0 mm 4 mps 670 mmHg 43%
    14:00 +27°C° 0 mm 4 mps 669 mmHg 41%
    15:00 +28°C° 0 mm 4 mps 669 mmHg 39%
    16:00 +26°C° 0 mm 3 mps 668 mmHg 43%
    17:00 +24°C° 0 mm 3 mps 668 mmHg 47%
    18:00 +23°C° 0 mm 2 mps 667 mmHg 51%
    19:00 +21°C° 0 mm 2 mps 668 mmHg 54%
    20:00 +20°C° 0 mm 2 mps 668 mmHg 56%
    21:00 +19°C° 0 mm 2 mps 668 mmHg 58%
    22:00 +18°C° 0 mm 2 mps 668 mmHg 55%
    23:00 +18°C° 0 mm 2 mps 668 mmHg 52%

    Day after tomorrow, 19 July, Thursday

    Time Temperature Precipitation Wind Pressure Humidity
    00:00 +17°C° 0 mm 3 mps 668 mmHg 50%
    01:00 +17°C° 0 mm 3 mps 668 mmHg 50%
    02:00 +16°C° 0 mm 2 mps 668 mmHg 50%
    03:00 +16°C° 0 mm 2 mps 667 mmHg 50%
    04:00 +16°C° 0 mm 3 mps 667 mmHg 53%
    05:00 +16°C° 0 mm 3 mps 667 mmHg 56%
    06:00 +14°C° 0 mm 3 mps 667 mmHg 59%
    07:00 +17°C° 0 mm 4 mps 668 mmHg 58%
    08:00 +17°C° 0 mm 5 mps 669 mmHg 57%
    09:00 +20°C° 0 mm 5 mps 670 mmHg 57%
    10:00 +21°C° 0 mm 5 mps 670 mmHg 50%
    11:00 +23°C° 0 mm 5 mps 670 mmHg 44%
    12:00 +26°C° 0 mm 5 mps 670 mmHg 37%
    13:00 +26°C° 0 mm 4 mps 670 mmHg 35%
    14:00 +27°C° 0 mm 4 mps 669 mmHg 33%
    15:00 +28°C° 0 mm 4 mps 668 mmHg 31%
    16:00 +26°C° 0 mm 3 mps 668 mmHg 35%
    17:00 +24°C° 0 mm 2 mps 667 mmHg 40%
    18:00 +23°C° 0 mm 2 mps 667 mmHg 45%
    19:00 +21°C° 0 mm 2 mps 667 mmHg 48%
    20:00 +20°C° 0 mm 2 mps 668 mmHg 52%
    21:00 +19°C° 0 mm 2 mps 668 mmHg 55%
    22:00 +18°C° 0 mm 2 mps 668 mmHg 58%
    23:00 +18°C° 0 mm 2 mps 668 mmHg 61%

    20 July, Friday

    Time Temperature Precipitation Wind Pressure Humidity
    00:00 +18°C° 0 mm 2 mps 668 mmHg 63%
    01:00 +17°C° 0 mm 2 mps 667 mmHg 65%
    02:00 +17°C° 0 mm 2 mps 667 mmHg 67%
    03:00 +16°C° 0 mm 2 mps 667 mmHg 69%
    04:00 +16°C° 0 mm 2 mps 667 mmHg 69%
    05:00 +16°C° 0 mm 2 mps 667 mmHg 70%
    06:00 +15°C° 0 mm 2 mps 667 mmHg 71%
    07:00 +17°C° 0 mm 3 mps 668 mmHg 65%
    08:00 +19°C° 0 mm 4 mps 669 mmHg 59%
    09:00 +20°C° 0 mm 4 mps 670 mmHg 53%
    10:00 +22°C° 0 mm 4 mps 670 mmHg 47%
    11:00 +25°C° 0 mm 4 mps 670 mmHg 42%
    12:00 +27°C° 0 mm 4 mps 670 mmHg 37%
    13:00 +27°C° 0 mm 3 mps 669 mmHg 35%
    14:00 +28°C° 0 mm 3 mps 669 mmHg 32%
    15:00 +28°C° 0 mm 3 mps 668 mmHg 30%
    16:00 +27°C° 0 mm 3 mps 668 mmHg 34%
    17:00 +25°C° 0 mm 2 mps 667 mmHg 38%
    18:00 +23°C° 0 mm 2 mps 667 mmHg 42%
    19:00 +21°C° 0 mm 2 mps 667 mmHg 44%
    20:00 +20°C° 0 mm 2 mps 668 mmHg 47%
    21:00 +19°C° 0 mm 2 mps 668 mmHg 49%
    22:00 +19°C° 0 mm 2 mps 668 mmHg 49%
    23:00 +18°C° 0 mm 2 mps 668 mmHg 49%

    21 July, Saturday

    Time Temperature Precipitation Wind Pressure Humidity
    00:00 +18°C° 0 mm 2 mps 668 mmHg 49%
    01:00 +17°C° 0 mm 2 mps 668 mmHg 49%
    02:00 +17°C° 0 mm 2 mps 667 mmHg 49%
    03:00 +16°C° 0 mm 2 mps 667 mmHg 49%
    04:00 +16°C° 0 mm 2 mps 667 mmHg 53%
    05:00 +16°C° 0 mm 2 mps 667 mmHg 56%
    06:00 +15°C° 0 mm 2 mps 668 mmHg 59%
    07:00 +17°C° 0 mm 3 mps 668 mmHg 58%
    08:00 +19°C° 0 mm 3 mps 669 mmHg 56%
    09:00 +21°C° 0 mm 4 mps 670 mmHg 54%
    10:00 +23°C° 0 mm 4 mps 670 mmHg 47%
    11:00 +26°C° 0 mm 3 mps 670 mmHg 41%
    12:00 +28°C° 0 mm 3 mps 670 mmHg 34%
    13:00 +28°C° 0 mm 3 mps 670 mmHg 31%
    14:00 +29°C° 0 mm 2 mps 669 mmHg 29%
    15:00 +29°C° 0 mm 2 mps 668 mmHg 26%
    16:00 +28°C° 0 mm 2 mps 668 mmHg 29%
    17:00 +26°C° 0 mm 2 mps 668 mmHg 33%
    18:00 +24°C° 0 mm 2 mps 667 mmHg 36%
    19:00 +23°C° 0 mm 2 mps 667 mmHg 39%
    20:00 +21°C° 0 mm 2 mps 668 mmHg 43%
    21:00 +20°C° 0 mm 2 mps 668 mmHg 46%
    22:00 +19°C° 0 mm 2 mps 668 mmHg 48%
    23:00 +19°C° 0 mm 2 mps 668 mmHg 50%

    22 July, Sunday

    Time Temperature Precipitation Wind Pressure Humidity
    00:00 +18°C° 0 mm 2 mps 668 mmHg 52%
    01:00 +18°C° 0 mm 2 mps 667 mmHg 53%
    02:00 +17°C° 0 mm 2 mps 667 mmHg 55%
    03:00 +17°C° 0 mm 2 mps 666 mmHg 57%
    04:00 +17°C° 0 mm 2 mps 667 mmHg 58%
    05:00 +16°C° 0 mm 2 mps 667 mmHg 58%
    06:00 +16°C° 0 mm 2 mps 667 mmHg 59%
    07:00 +18°C° 0 mm 3 mps 668 mmHg 53%
    08:00 +20°C° 0 mm 3 mps 669 mmHg 48%
    09:00 +22°C° 0 mm 4 mps 670 mmHg 43%
    10:00 +23°C° 0 mm 4 mps 670 mmHg 39%
    11:00 +26°C° 0 mm 4 mps 670 mmHg 35%
    12:00 +28°C° 0 mm 4 mps 670 mmHg 31%
    13:00 +28°C° 0 mm 3 mps 670 mmHg 30%
    14:00 +29°C° 0 mm 3 mps 669 mmHg 29%
    15:00 +29°C° 0 mm 3 mps 668 mmHg 27%
    16:00 +27°C° 0 mm 3 mps 668 mmHg 31%
    17:00 +26°C° 0 mm 2 mps 668 mmHg 35%
    18:00 +24°C° 0 mm 2 mps 668 mmHg 39%
    19:00 +23°C° 0 mm 2 mps 668 mmHg 41%
    20:00 +21°C° 0 mm 2 mps 668 mmHg 44%
    21:00 +20°C° 0 mm 2 mps 668 mmHg 47%
    22:00 +20°C° 0 mm 2 mps 668 mmHg 48%
    23:00 +19°C° 0 mm 2 mps 668 mmHg 49%
    Show more